QPS-SAR-1 IZANAGI (44856 NORAD) Tracking and Keplerian Element Data

This shows tracking and keplerian element data for the satellite.

Feedback or suggestion? Click here.




ElementValue
Catalog44856
NameQPS-SAR-1 IZANAGI
Epoch Orbit636
Epoch Day22.97189376
Epoch Year2020
RAAN244.2436
Inclination36.9691
Eccentricity0.0007088
Argument of Perigee292.7982
Mean Anonmoly67.2001
Mean Motion14.98232945
Decay Rate2.75E-06
L11 44856U 19089E 20022.97189376 .00000275 00000-0 29262-4 0 9999
L22 44856 36.9691 244.2436 0007088 292.7982 67.2001 14.98232945 6368

Live tracking and technical data element details for QPS-SAR-1 IZANAGI (NORAD 44856). QPS-SAR-1 IZANAGI can be tracked NOW for your location showing map with azimuth and elevation plus other details from your city location.

Track the satellite on the map from your city or location and see movement details for azimuth, elevation, latitude, longitude, range, height, and movement on the map or in text.







IsCatalogInMostPopularTable: catalog: 44856, numindb: 9
Update: records affected: 1



GetName: 44856 QPS-SAR-1 IZANAGI

Hit Count: updated at: Fri, 24 Jan 2020 14:33:40 GMT